Miscellaneous Local Product
Issued by NWS North Platte, NE

Home | Current Version | Previous Version | Text Only | Print | Product List | Glossary On
Versions: 1 2 3 4 5 6 7 8 9 10 11 12 13 14 15 16 17 18 19 20 21 22 23 24 25 26 27 28 29 30 31 32 33 34 35 36 37 38 39 40 41 42 43 44 45 46 47 48 49 50
000
AXUS43 KLBF 211010
MISLBF


WESTERN AND NORTH CENTRAL NEBRASKA HOURLY WEATHER ROUNDUP
NATIONAL WEATHER SERVICE NORTH PLATTE NE
400 AM CST SAT JAN 21 2017

NOTE: "FAIR" INDICATES FEW OR NO CLOUDS BELOW 12,000 FEET WITH NO
SIGNIFICANT WEATHER AND/OR OBSTRUCTIONS TO VISIBILITY.

NOTE: STATIONS NOT REPORTING VARIABLES SUCH AS SKY/WEATHER OR
PRESSURE ARE PROVIDED BY RAWS AND APRS NETWORKS AND ARE NOT UNDER
NATIONAL WEATHER SERVICE QUALITY CONTROL.

...OBSERVATIONS IN AND NEAR THE EASTERN PANHANDLE OF NEBRASKA...

CITY           SKY/WX    TMP DP  RH WIND       PRES   REMARKS
PINE RIDGE     MOCLDY    32  31  96 W3        29.36F
CHADRON        CLOUDY    32  27  81 W12       29.38F WCI  23
ALLIANCE       CLOUDY    23  21  92 W9        29.38S WCI  13
SIDNEY         CLEAR     27  20  75 MISG      29.41F
CRESCENT LAKE    N/A     29  29  99 NW5         N/A  WCI  24
$$

...OBSERVATIONS IN NORTHERN NEBRASKA AND FAR SOUTHERN SOUTH DAKOTA...

CITY           SKY/WX    TMP DP  RH WIND       PRES   REMARKS
WINNER         CLOUDY    27  23  85 CALM      29.34F
VALENTINE      MOCLDY    31  28  89 W5        29.34S WCI  26
THEDFORD       MOCLDY    34  33  96 W6        29.37S WCI  29
AINSWORTH      CLOUDY    33  32  96 W7        29.34S WCI  27
O`NEILL        CLOUDY    34  32  94 W6        29.35S WCI  29
ORD            CLOUDY    35  31  85 W6        29.36S WCI  30
BROKEN BOW     CLOUDY    36  33  89 W6        29.37R WCI  31
VALENTINE NWR    N/A     33  30  90 W6          N/A  WCI  27
BUTTE            N/A     32  30  92 CALM        N/A
HALSEY           N/A     35  33  94 W6          N/A  WCI  30
SARGENT          N/A     35  26  69 W3          N/A
CHAMBERS         N/A     32  32  99 CALM        N/A
EWING            N/A     34  33  96 W3          N/A
$$

...OBSERVATIONS IN SOUTHWEST NEBRASKA AND FAR NORTHEAST COLORADO...

CITY           SKY/WX    TMP DP  RH WIND       PRES   REMARKS
WRAY           FAIR      25  23  93 CALM      29.43F
HOLYOKE        FAIR      28  23  80 W7        29.43S WCI  21
IMPERIAL       CLEAR     31  27  85 W10       29.43R WCI  22
OGALLALA       CLOUDY    30  28  95 W6        29.42S WCI  24
NORTH PLATTE   CLEAR     27  26  96 W7        29.41R FOG     WCI  19
MCCOOK         CLEAR     30  30 100 W8        29.42F WCI  22
LEXINGTON      CLOUDY    32  31  95 NW5       29.40S WCI  28
STAPLETON        N/A     33  31  93 CALM        N/A
GOTHENBURG       N/A     33  31  94 CALM        N/A
CALLAWAY         N/A     33  31  93 W10         N/A  WCI  25
$$

...OBSERVATIONS IN CENTRAL LINCOLN COUNTY AREA...

CITY           SKY/WX    TMP DP  RH WIND       PRES   REMARKS
N.P. AIRPORT   CLEAR     27  26  96 W7        29.41R FOG     WCI  19
N.P. DOWNTOWN    N/A     32  31  96 CALM        N/A
N.P. SOUTHEAST   N/A     32  30  94 CALM        N/A
N.P. HILLCREST   N/A     31  31  99 W3          N/A
$$

...SOME OBSERVATIONS FROM AROUND THE REGION...

CITY           SKY/WX    TMP DP  RH WIND       PRES   REMARKS
LARAMIE        CLOUDY     8   4  83 SE6       29.35F WCI  -2
CHEYENNE       CLEAR     22  17  81 W8        29.37F WCI  12
DENVER         CLOUDY    24  16  71 SE8       29.36F WCI  15
AKRON          CLEAR     27  18  69 S3        29.40F
SCOTTSBLUFF    CLEAR     26  20  77 NW5       29.40F WCI  20
RAPID CITY     CLOUDY    34  31  88 N12       29.34S WCI  25
BISMARCK       CLOUDY    30  29  96 NW5       29.32S FOG     WCI  25
PIERRE         CLOUDY    26  24  92 NW10      29.32R WCI  16
SIOUX FALLS    FOG       36  36 100 SE7       29.35S VSB 1/2 WCI  30
OMAHA          FOG       41  37  86 CALM      29.38F VSB 1/2
GRAND ISLAND   PTCLDY    34  34 100 W8        29.38F WCI  27
KANSAS CITY    FOG       41  39  93 W7        29.42S VSB 1/4
WICHITA        CLEAR     31  30  96 S7        29.51S WCI  24
OKLAHOMA CITY  PTCLDY    41  34  76 N7        29.52F
DALLAS         PTCLDY    49  46  90 SE7       29.53F
AMARILLO       MOCLDY    44  33  65 SW13      29.51F
DODGE CITY     CLEAR     30  28  92 NW8       29.48F WCI  22
HAYS           CLEAR     30  29  96 W8        29.47S WCI  22
GOODLAND       CLEAR     28  25  88 SW8       29.44S WCI  20
$$




USA.gov is the U.S. government's official web portal to all federal, state and local government web resources and services.